Wetterdaten: Dienstag, 13.01.2015
Datum Zeit Temperatur Luftfeuchte Luftdruck Regen Wind Richtung Richtung Taupunkt Windchill Windben
13.01.2015 00:00 4,9 C 30 % 1023,1 hPa 0,0 l/m 6,4 km/h (2 Bft) SW 225 -11,2 C 2,7 C 5,3 km/h (1 Bft)
13.01.2015 00:05 4,9 C 30 % 1023,1 hPa 0,0 l/m 6,4 km/h (2 Bft) SW 225 -11,2 C 2,7 C 6,1 km/h (2 Bft)
13.01.2015 00:10 4,4 C 30 % 1023,1 hPa 0,0 l/m 6,0 km/h (2 Bft) SW 225 -11,6 C 2,9 C 6,8 km/h (2 Bft)
13.01.2015 00:15 3,8 C 30 % 1023,1 hPa 0,0 l/m 5,5 km/h (1 Bft) SW 225 -12,1 C 2,5 C 6,8 km/h (2 Bft)
13.01.2015 00:20 2,8 C 33 % 1022,7 hPa 0,0 l/m 4,2 km/h (1 Bft) S-SO 157 -11,8 C 2,1 C 2,7 km/h (1 Bft)
13.01.2015 00:25 2,3 C 35 % 1022,7 hPa 0,0 l/m 4,0 km/h (1 Bft) S-SO 157 -11,6 C 1,4 C 2,9 km/h (1 Bft)
13.01.2015 00:30 2,2 C 37 % 1022,7 hPa 0,0 l/m 3,2 km/h (1 Bft) S 180 -10,9 C 1,1 C 0,0 km/h (0 Bft)
13.01.2015 00:35 1,9 C 40 % 1022,7 hPa 0,0 l/m 2,9 km/h (1 Bft) S-SO 157 -10,2 C 1,1 C 4,3 km/h (1 Bft)
13.01.2015 00:40 1,6 C 43 % 1022,8 hPa 0,0 l/m 2,9 km/h (1 Bft) S 180 -9,6 C 0,6 C 3,4 km/h (1 Bft)
13.01.2015 00:45 1,3 C 44 % 1022,8 hPa 0,0 l/m 2,9 km/h (1 Bft) S-SO 157 -9,6 C 0,4 C 2,3 km/h (1 Bft)
13.01.2015 00:50 0,9 C 45 % 1022,8 hPa 0,0 l/m 2,7 km/h (1 Bft) S-SO 157 -9,7 C 0,1 C 3,5 km/h (1 Bft)
13.01.2015 00:55 1,0 C 45 % 1022,8 hPa 0,0 l/m 2,7 km/h (1 Bft) S-SO 157 -9,6 C 0,0 C 3,2 km/h (1 Bft)
13.01.2015 01:00 1,0 C 46 % 1022,4 hPa 0,0 l/m 1,6 km/h (1 Bft) S 180 -9,3 C 0,1 C 3,1 km/h (1 Bft)
13.01.2015 01:05 1,0 C 46 % 1022,4 hPa 0,0 l/m 1,8 km/h (1 Bft) W-SW 247 -9,3 C 0,1 C 6,6 km/h (2 Bft)
13.01.2015 01:10 1,2 C 47 % 1022,4 hPa 0,0 l/m 2,9 km/h (1 Bft) S-SO 157 -8,8 C -0,2 C 4,8 km/h (1 Bft)
13.01.2015 01:15 1,1 C 47 % 1022,4 hPa 0,0 l/m 3,4 km/h (1 Bft) SO 135 -8,9 C -0,4 C 3,4 km/h (1 Bft)
13.01.2015 01:20 1,1 C 47 % 1022,3 hPa 0,0 l/m 2,6 km/h (1 Bft) S-SO 157 -8,9 C 0,1 C 6,6 km/h (2 Bft)
13.01.2015 01:25 1,5 C 47 % 1022,3 hPa 0,0 l/m 2,9 km/h (1 Bft) S-SW 202 -8,6 C 0,2 C 4,8 km/h (1 Bft)
13.01.2015 01:30 1,2 C 48 % 1022,3 hPa 0,0 l/m 3,4 km/h (1 Bft) N-NO 22 -8,6 C -0,2 C 6,9 km/h (2 Bft)
13.01.2015 01:35 0,9 C 48 % 1022,3 hPa 0,0 l/m 1,9 km/h (1 Bft) S 180 -8,8 C 0,3 C 0,0 km/h (0 Bft)
13.01.2015 01:40 0,6 C 49 % 1022,2 hPa 0,0 l/m 0,6 km/h (0 Bft) S 180 -8,9 C 0,0 C 0,0 km/h (0 Bft)
13.01.2015 01:45 0,3 C 50 % 1022,2 hPa 0,0 l/m 0,2 km/h (0 Bft) S 180 -8,9 C -0,3 C 0,0 km/h (0 Bft)
13.01.2015 01:50 -0,1 C 50 % 1022,2 hPa 0,0 l/m 0,0 km/h (0 Bft) S-SO 157 -9,2 C -0,7 C 0,0 km/h (0 Bft)
13.01.2015 01:55 -0,2 C 51 % 1022,2 hPa 0,0 l/m 0,0 km/h (0 Bft) W 270 -9,1 C -1,0 C 0,0 km/h (0 Bft)
13.01.2015 02:00 -0,3 C 53 % 1022,1 hPa 0,0 l/m 0,6 km/h (0 Bft) O-NO 67 -8,7 C -1,2 C 2,1 km/h (1 Bft)
13.01.2015 02:05 -0,5 C 54 % 1022,1 hPa 0,0 l/m 0,8 km/h (0 Bft) O-NO 67 -8,6 C -1,4 C 0,0 km/h (0 Bft)
13.01.2015 02:10 -1,2 C 53 % 1022,1 hPa 0,0 l/m 0,2 km/h (0 Bft) O-NO 67 -9,5 C -1,8 C 0,0 km/h (0 Bft)
13.01.2015 02:15 -0,7 C 55 % 1022,1 hPa 0,0 l/m 0,3 km/h (0 Bft) NO 45 -8,6 C -1,9 C 1,6 km/h (1 Bft)
13.01.2015 02:20 -1,1 C 56 % 1022,1 hPa 0,0 l/m 0,5 km/h (0 Bft) NO 45 -8,7 C -2,0 C 0,0 km/h (0 Bft)
13.01.2015 02:25 -1,4 C 55 % 1022,1 hPa 0,0 l/m 0,2 km/h (0 Bft) O-SO 112 -9,2 C -2,2 C 0,0 km/h (0 Bft)
13.01.2015 02:30 -1,0 C 56 % 1022,1 hPa 0,0 l/m 0,3 km/h (0 Bft) S-SO 157 -8,6 C -2,0 C 0,0 km/h (0 Bft)
13.01.2015 02:35 -1,2 C 57 % 1022,1 hPa 0,0 l/m 0,2 km/h (0 Bft) S-SO 157 -8,6 C -2,2 C 0,0 km/h (0 Bft)
13.01.2015 02:40 -1,3 C 57 % 1021,9 hPa 0,0 l/m 0,0 km/h (0 Bft) S-SO 157 -8,7 C -2,1 C 0,0 km/h (0 Bft)
13.01.2015 02:45 -1,0 C 58 % 1021,9 hPa 0,0 l/m 0,2 km/h (0 Bft) S-SO 157 -8,2 C -2,1 C 1,6 km/h (1 Bft)
13.01.2015 02:50 0,0 C 57 % 1021,9 hPa 0,0 l/m 1,4 km/h (1 Bft) O-SO 112 -7,5 C -1,6 C 0,0 km/h (0 Bft)
13.01.2015 02:55 0,1 C 56 % 1021,9 hPa 0,0 l/m 2,1 km/h (1 Bft) S 180 -7,6 C -1,1 C 3,1 km/h (1 Bft)
13.01.2015 03:00 -0,4 C 56 % 1021,8 hPa 0,0 l/m 1,6 km/h (1 Bft) S 180 -8,1 C -0,8 C 0,0 km/h (0 Bft)
13.01.2015 03:05 -0,7 C 56 % 1021,8 hPa 0,0 l/m 1,3 km/h (1 Bft) S 180 -8,4 C -1,1 C 1,8 km/h (1 Bft)
13.01.2015 03:10 -1,3 C 57 % 1021,8 hPa 0,0 l/m 0,6 km/h (0 Bft) W-NW 292 -8,7 C -1,5 C 0,0 km/h (0 Bft)
13.01.2015 03:15 -1,6 C 57 % 1021,8 hPa 0,0 l/m 0,3 km/h (0 Bft) S 180 -9,0 C -2,0 C 0,0 km/h (0 Bft)
13.01.2015 03:20 -1,6 C 58 % 1021,5 hPa 0,0 l/m 0,0 km/h (0 Bft) S-SO 157 -8,8 C -2,3 C 0,0 km/h (0 Bft)
13.01.2015 03:25 -1,7 C 58 % 1021,5 hPa 0,0 l/m 0,0 km/h (0 Bft) S-SO 157 -8,9 C -2,4 C 0,0 km/h (0 Bft)
13.01.2015 03:30 -1,7 C 59 % 1021,5 hPa 0,0 l/m 0,2 km/h (0 Bft) S-SO 157 -8,6 C -2,7 C 0,0 km/h (0 Bft)
13.01.2015 03:35 -1,7 C 59 % 1021,5 hPa 0,0 l/m 0,2 km/h (0 Bft) S-SO 157 -8,6 C -2,8 C 0,0 km/h (0 Bft)
13.01.2015 03:40 -0,9 C 59 % 1021,6 hPa 0,0 l/m 1,1 km/h (1 Bft) SO 135 -7,9 C -2,5 C 0,0 km/h (0 Bft)
13.01.2015 03:45 -1,6 C 59 % 1021,6 hPa 0,0 l/m 1,0 km/h (0 Bft) SO 135 -8,5 C -2,4 C 0,0 km/h (0 Bft)
13.01.2015 03:50 -1,4 C 59 % 1021,6 hPa 0,0 l/m 0,6 km/h (0 Bft) S 180 -8,4 C -2,7 C 3,2 km/h (1 Bft)
13.01.2015 03:55 -0,1 C 58 % 1021,6 hPa 0,0 l/m 1,9 km/h (1 Bft) S 180 -7,3 C -1,9 C 6,8 km/h (2 Bft)
13.01.2015 04:00 1,3 C 53 % 1021,7 hPa 0,0 l/m 4,7 km/h (1 Bft) W-SW 247 -7,2 C -1,8 C 7,9 km/h (2 Bft)
13.01.2015 04:05 1,7 C 51 % 1021,7 hPa 0,0 l/m 5,0 km/h (1 Bft) O 90 -7,3 C -0,8 C 2,7 km/h (1 Bft)
13.01.2015 04:10 0,5 C 51 % 1021,7 hPa 0,0 l/m 3,5 km/h (1 Bft) O-SO 112 -8,4 C -0,1 C 12,6 km/h (3 Bft)
13.01.2015 04:15 0,7 C 51 % 1021,7 hPa 0,0 l/m 2,7 km/h (1 Bft) W 270 -8,3 C 0,2 C 5,8 km/h (2 Bft)
13.01.2015 04:20 0,6 C 51 % 1021,5 hPa 0,0 l/m 2,7 km/h (1 Bft) S 180 -8,3 C 0,1 C 3,2 km/h (1 Bft)
13.01.2015 04:25 0,7 C 50 % 1021,5 hPa 0,0 l/m 2,9 km/h (1 Bft) S 180 -8,5 C -0,1 C 5,1 km/h (1 Bft)
13.01.2015 04:30 0,6 C 50 % 1021,5 hPa 0,0 l/m 3,2 km/h (1 Bft) S-SO 157 -8,6 C -0,3 C 3,7 km/h (1 Bft)
13.01.2015 04:35 0,7 C 49 % 1021,5 hPa 0,0 l/m 3,2 km/h (1 Bft) S 180 -8,8 C -0,3 C 4,0 km/h (1 Bft)
13.01.2015 04:40 0,2 C 50 % 1021,1 hPa 0,0 l/m 3,1 km/h (1 Bft) S-SO 157 -9,0 C -0,5 C 4,5 km/h (1 Bft)
13.01.2015 04:45 -0,2 C 51 % 1021,1 hPa 0,0 l/m 2,7 km/h (1 Bft) S 180 -9,1 C -0,5 C 1,8 km/h (1 Bft)
13.01.2015 04:50 0,3 C 51 % 1021,1 hPa 0,0 l/m 2,6 km/h (1 Bft) S 180 -8,6 C -0,7 C 3,7 km/h (1 Bft)
13.01.2015 04:55 0,5 C 50 % 1021,1 hPa 0,0 l/m 3,2 km/h (1 Bft) S 180 -8,7 C -0,9 C 7,4 km/h (2 Bft)
13.01.2015 05:00 0,1 C 52 % 1021,2 hPa 0,0 l/m 3,4 km/h (1 Bft) S 180 -8,6 C -1,1 C 2,6 km/h (1 Bft)
13.01.2015 05:05 -0,1 C 52 % 1021,2 hPa 0,0 l/m 2,9 km/h (1 Bft) S-SO 157 -8,7 C -1,1 C 2,7 km/h (1 Bft)
13.01.2015 05:10 -0,3 C 53 % 1021,2 hPa 0,0 l/m 2,1 km/h (1 Bft) SO 135 -8,7 C -0,8 C 2,9 km/h (1 Bft)
13.01.2015 05:15 -0,6 C 54 % 1021,2 hPa 0,0 l/m 2,7 km/h (1 Bft) S-SO 157 -8,7 C -1,6 C 4,8 km/h (1 Bft)
13.01.2015 05:20 -0,8 C 55 % 1021,1 hPa 0,0 l/m 3,4 km/h (1 Bft) W-SW 247 -8,7 C -2,3 C 2,9 km/h (1 Bft)
13.01.2015 05:25 -0,7 C 56 % 1021,1 hPa 0,0 l/m 4,3 km/h (1 Bft) S-SO 157 -8,4 C -3,1 C 3,9 km/h (1 Bft)
13.01.2015 05:30 -1,1 C 57 % 1021,1 hPa 0,0 l/m 3,9 km/h (1 Bft) SO 135 -8,5 C -3,1 C 1,8 km/h (1 Bft)
13.01.2015 05:35 -1,6 C 57 % 1021,1 hPa 0,0 l/m 2,1 km/h (1 Bft) O-SO 112 -9,0 C -2,2 C 2,3 km/h (1 Bft)
13.01.2015 05:40 -1,3 C 58 % 1021,2 hPa 0,0 l/m 0,8 km/h (0 Bft) S-SO 157 -8,5 C -2,7 C 2,4 km/h (1 Bft)
13.01.2015 05:45 -1,2 C 57 % 1021,2 hPa 0,0 l/m 0,5 km/h (0 Bft) S-SO 157 -8,6 C -2,6 C 0,0 km/h (0 Bft)
13.01.2015 05:50 -1,5 C 57 % 1021,2 hPa 0,0 l/m 0,5 km/h (0 Bft) O-NO 67 -8,9 C -2,6 C 0,0 km/h (0 Bft)
13.01.2015 05:55 -1,9 C 57 % 1021,2 hPa 0,0 l/m 0,3 km/h (0 Bft) S-SO 157 -9,3 C -2,9 C 2,4 km/h (1 Bft)
13.01.2015 06:00 -1,6 C 57 % 1021,0 hPa 0,0 l/m 1,1 km/h (1 Bft) N-NW 337 -9,0 C -2,8 C 1,6 km/h (1 Bft)
13.01.2015 06:05 -1,9 C 57 % 1021,0 hPa 0,0 l/m 1,3 km/h (1 Bft) W 270 -9,3 C -2,9 C 2,7 km/h (1 Bft)
13.01.2015 06:10 -2,5 C 57 % 1021,0 hPa 0,0 l/m 0,5 km/h (0 Bft) N-NW 337 -9,8 C -3,4 C 0,0 km/h (0 Bft)
13.01.2015 06:15 -2,8 C 58 % 1021,0 hPa 0,0 l/m 0,2 km/h (0 Bft) N-NW 337 -9,9 C -3,7 C 0,0 km/h (0 Bft)
13.01.2015 06:20 -2,6 C 58 % 1021,0 hPa 0,0 l/m 0,2 km/h (0 Bft) S 180 -9,7 C -4,0 C 0,0 km/h (0 Bft)
13.01.2015 06:25 -3,0 C 59 % 1021,0 hPa 0,0 l/m 0,2 km/h (0 Bft) W-SW 247 -9,9 C -4,0 C 0,0 km/h (0 Bft)
13.01.2015 06:30 -3,7 C 59 % 1021,0 hPa 0,0 l/m 0,0 km/h (0 Bft) W-SW 247 -10,5 C -4,6 C 0,0 km/h (0 Bft)
13.01.2015 06:35 -3,7 C 59 % 1021,0 hPa 0,0 l/m 0,0 km/h (0 Bft) W-SW 247 -10,5 C -4,8 C 0,0 km/h (0 Bft)
13.01.2015 06:40 -3,9 C 59 % 1020,8 hPa 0,0 l/m 0,0 km/h (0 Bft) W-SW 247 -10,7 C -5,0 C 0,0 km/h (0 Bft)
13.01.2015 06:45 -4,2 C 59 % 1020,8 hPa 0,0 l/m 0,0 km/h (0 Bft) W-SW 247 -11,0 C -5,2 C 0,0 km/h (0 Bft)
13.01.2015 06:50 -3,9 C 60 % 1020,8 hPa 0,0 l/m 0,0 km/h (0 Bft) W-SW 247 -10,5 C -5,4 C 0,0 km/h (0 Bft)
13.01.2015 06:55 -3,9 C 61 % 1020,8 hPa 0,0 l/m 0,0 km/h (0 Bft) W-SW 247 -10,3 C -5,5 C 0,0 km/h (0 Bft)
13.01.2015 07:00 -3,9 C 62 % 1020,9 hPa 0,0 l/m 0,0 km/h (0 Bft) W-SW 247 -10,1 C -5,4 C 0,0 km/h (0 Bft)
13.01.2015 07:05 -3,9 C 63 % 1020,9 hPa 0,0 l/m 0,0 km/h (0 Bft) SW 225 -9,9 C -5,4 C 0,0 km/h (0 Bft)
13.01.2015 07:10 -4,3 C 62 % 1020,9 hPa 0,0 l/m 0,0 km/h (0 Bft) SW 225 -10,5 C -5,6 C 0,0 km/h (0 Bft)
13.01.2015 07:15 -4,2 C 64 % 1020,9 hPa 0,0 l/m 0,2 km/h (0 Bft) W 270 -10,0 C -5,6 C 0,0 km/h (0 Bft)
13.01.2015 07:20 -4,4 C 63 % 1020,4 hPa 0,0 l/m 0,2 km/h (0 Bft) W 270 -10,4 C -5,7 C 0,0 km/h (0 Bft)
13.01.2015 07:25 -4,4 C 64 % 1020,4 hPa 0,0 l/m 0,0 km/h (0 Bft) W 270 -10,2 C -5,7 C 0,0 km/h (0 Bft)
13.01.2015 07:30 -4,4 C 66 % 1020,4 hPa 0,0 l/m 0,0 km/h (0 Bft) W 270 -9,8 C -5,8 C 0,0 km/h (0 Bft)
13.01.2015 07:35 -4,5 C 65 % 1020,4 hPa 0,0 l/m 0,0 km/h (0 Bft) W 270 -10,1 C -5,8 C 0,0 km/h (0 Bft)
13.01.2015 07:40 -4,3 C 64 % 1020,4 hPa 0,0 l/m 0,0 km/h (0 Bft) W 270 -10,1 C -5,7 C 0,0 km/h (0 Bft)
13.01.2015 07:45 -4,3 C 65 % 1020,4 hPa 0,0 l/m 0,0 km/h (0 Bft) W 270 -9,9 C -5,7 C 0,0 km/h (0 Bft)
13.01.2015 07:50 -4,4 C 65 % 1020,4 hPa 0,0 l/m 0,0 km/h (0 Bft) W 270 -10,0 C -5,7 C 0,0 km/h (0 Bft)
13.01.2015 07:55 -4,8 C 65 % 1020,4 hPa 0,0 l/m 0,0 km/h (0 Bft) W 270 -10,3 C -5,8 C 0,0 km/h (0 Bft)
13.01.2015 08:00 -5,0 C 65 % 1020,3 hPa 0,0 l/m 0,0 km/h (0 Bft) W 270 -10,5 C -6,1 C 0,0 km/h (0 Bft)
13.01.2015 08:05 -4,1 C 67 % 1020,3 hPa 0,0 l/m 0,0 km/h (0 Bft) S-SO 157 -9,3 C -6,0 C 0,0 km/h (0 Bft)
13.01.2015 08:10 -4,4 C 66 % 1020,3 hPa 0,0 l/m 0,0 km/h (0 Bft) S 180 -9,8 C -5,7 C 0,0 km/h (0 Bft)
13.01.2015 08:15 -4,5 C 66 % 1020,3 hPa 0,0 l/m 0,0 km/h (0 Bft) S 180 -9,9 C -5,8 C 0,0 km/h (0 Bft)
13.01.2015 08:20 -4,4 C 66 % 1020,6 hPa 0,0 l/m 0,0 km/h (0 Bft) S 180 -9,8 C -5,7 C 0,0 km/h (0 Bft)
13.01.2015 08:25 -4,4 C 66 % 1020,6 hPa 0,0 l/m 0,0 km/h (0 Bft) S 180 -9,8 C -5,8 C 0,0 km/h (0 Bft)
13.01.2015 08:30 -4,6 C 66 % 1020,6 hPa 0,0 l/m 0,0 km/h (0 Bft) S-SO 157 -10,0 C -5,8 C 0,0 km/h (0 Bft)
13.01.2015 08:35 -4,6 C 66 % 1020,6 hPa 0,0 l/m 0,0 km/h (0 Bft) S-SO 157 -10,0 C -5,9 C 0,0 km/h (0 Bft)
13.01.2015 08:40 -4,8 C 66 % 1020,3 hPa 0,0 l/m 0,0 km/h (0 Bft) S-SO 157 -10,2 C -5,9 C 0,0 km/h (0 Bft)
13.01.2015 08:45 -5,0 C 66 % 1020,3 hPa 0,0 l/m 0,0 km/h (0 Bft) S-SO 157 -10,3 C -6,0 C 0,0 km/h (0 Bft)
13.01.2015 08:50 -4,7 C 67 % 1020,3 hPa 0,0 l/m 0,0 km/h (0 Bft) S-SO 157 -9,9 C -6,0 C 0,0 km/h (0 Bft)
13.01.2015 08:55 -4,7 C 66 % 1020,3 hPa 0,0 l/m 0,0 km/h (0 Bft) S 180 -10,1 C -5,9 C 0,0 km/h (0 Bft)
13.01.2015 09:00 -4,6 C 67 % 1020,2 hPa 0,0 l/m 0,0 km/h (0 Bft) S 180 -9,8 C -5,8 C 0,0 km/h (0 Bft)
13.01.2015 09:05 -4,4 C 67 % 1020,2 hPa 0,0 l/m 0,0 km/h (0 Bft) S-SO 157 -9,6 C -5,7 C 0,0 km/h (0 Bft)
13.01.2015 09:10 -3,9 C 68 % 1020,2 hPa 0,0 l/m 0,0 km/h (0 Bft) S 180 -8,9 C -5,3 C 0,0 km/h (0 Bft)
13.01.2015 09:15 -3,8 C 68 % 1020,2 hPa 0,0 l/m 0,0 km/h (0 Bft) S 180 -8,8 C -5,1 C 0,0 km/h (0 Bft)
13.01.2015 09:20 -3,8 C 67 % 1020,2 hPa 0,0 l/m 0,0 km/h (0 Bft) S-SO 157 -9,0 C -4,7 C 0,0 km/h (0 Bft)
13.01.2015 09:25 -3,5 C 67 % 1020,2 hPa 0,0 l/m 0,0 km/h (0 Bft) S-SO 157 -8,7 C -4,6 C 0,0 km/h (0 Bft)
13.01.2015 09:30 -3,5 C 67 % 1020,2 hPa 0,0 l/m 0,0 km/h (0 Bft) S-SO 157 -8,7 C -4,5 C 0,0 km/h (0 Bft)
13.01.2015 09:35 -3,0 C 67 % 1020,2 hPa 0,0 l/m 0,0 km/h (0 Bft) S-SO 157 -8,2 C -4,3 C 0,0 km/h (0 Bft)
13.01.2015 09:40 -2,8 C 66 % 1020,1 hPa 0,0 l/m 0,0 km/h (0 Bft) S-SO 157 -8,2 C -4,0 C 0,0 km/h (0 Bft)
13.01.2015 09:45 -2,5 C 66 % 1020,1 hPa 0,0 l/m 0,0 km/h (0 Bft) S-SO 157 -8,0 C -3,7 C 0,0 km/h (0 Bft)
13.01.2015 09:50 -2,7 C 65 % 1020,1 hPa 0,0 l/m 0,0 km/h (0 Bft) S-SO 157 -8,3 C -3,5 C 0,0 km/h (0 Bft)
13.01.2015 09:55 -2,5 C 65 % 1020,1 hPa 0,0 l/m 0,0 km/h (0 Bft) S-SO 157 -8,2 C -3,5 C 0,0 km/h (0 Bft)
13.01.2015 10:00 -2,5 C 64 % 1020,1 hPa 0,0 l/m 0,0 km/h (0 Bft) S-SO 157 -8,4 C -3,4 C 0,0 km/h (0 Bft)
13.01.2015 10:05 -2,4 C 64 % 1020,1 hPa 0,0 l/m 0,0 km/h (0 Bft) S-SO 157 -8,3 C -3,3 C 0,0 km/h (0 Bft)
13.01.2015 10:10 -2,2 C 64 % 1020,1 hPa 0,0 l/m 0,0 km/h (0 Bft) S-SO 157 -8,1 C -3,2 C 0,0 km/h (0 Bft)
13.01.2015 10:15 -1,5 C 65 % 1020,1 hPa 0,0 l/m 0,0 km/h (0 Bft) S-SO 157 -7,2 C -2,9 C 0,0 km/h (0 Bft)
13.01.2015 10:20 -1,2 C 64 % 1020,1 hPa 0,0 l/m 0,0 km/h (0 Bft) S-SO 157 -7,1 C -2,5 C 0,0 km/h (0 Bft)
13.01.2015 10:25 -1,2 C 63 % 1020,1 hPa 0,0 l/m 0,0 km/h (0 Bft) S 180 -7,3 C -2,2 C 0,0 km/h (0 Bft)
13.01.2015 10:30 -0,3 C 61 % 1020,1 hPa 0,0 l/m 0,0 km/h (0 Bft) SO 135 -6,9 C -1,9 C 0,0 km/h (0 Bft)
13.01.2015 10:35 -0,6 C 61 % 1020,1 hPa 0,0 l/m 0,0 km/h (0 Bft) SO 135 -7,2 C -1,6 C 0,0 km/h (0 Bft)
13.01.2015 10:40 -0,4 C 61 % 1019,8 hPa 0,0 l/m 0,0 km/h (0 Bft) SO 135 -7,0 C -1,3 C 0,0 km/h (0 Bft)
13.01.2015 10:45 -0,3 C 61 % 1019,8 hPa 0,0 l/m 0,0 km/h (0 Bft) SO 135 -6,9 C -1,1 C 0,0 km/h (0 Bft)
13.01.2015 10:50 0,6 C 59 % 1019,8 hPa 0,0 l/m 0,0 km/h (0 Bft) SO 135 -6,5 C -0,7 C 0,0 km/h (0 Bft)
13.01.2015 10:55 1,3 C 58 % 1019,8 hPa 0,0 l/m 0,6 km/h (0 Bft) S-SO 157 -6,0 C -0,2 C 0,0 km/h (0 Bft)
13.01.2015 11:00 1,6 C 57 % 1019,7 hPa 0,0 l/m 0,6 km/h (0 Bft) S 180 -6,0 C 0,7 C 0,0 km/h (0 Bft)
13.01.2015 11:05 1,6 C 57 % 1019,7 hPa 0,0 l/m 0,2 km/h (0 Bft) S-SO 157 -6,0 C 0,9 C 0,0 km/h (0 Bft)
13.01.2015 11:10 1,6 C 56 % 1019,7 hPa 0,0 l/m 0,0 km/h (0 Bft) SO 135 -6,2 C 1,2 C 0,0 km/h (0 Bft)
13.01.2015 11:15 2,2 C 54 % 1019,7 hPa 0,0 l/m 0,2 km/h (0 Bft) SO 135 -6,1 C 1,2 C 2,3 km/h (1 Bft)
13.01.2015 11:20 2,6 C 53 % 1019,4 hPa 0,0 l/m 0,6 km/h (0 Bft) SW 225 -6,0 C 1,7 C 0,0 km/h (0 Bft)
13.01.2015 11:25 2,5 C 53 % 1019,4 hPa 0,0 l/m 0,6 km/h (0 Bft) SW 225 -6,1 C 2,0 C 0,0 km/h (0 Bft)
13.01.2015 11:30 2,7 C 52 % 1019,4 hPa 0,0 l/m 0,3 km/h (0 Bft) S-SO 157 -6,2 C 2,1 C 0,0 km/h (0 Bft)
13.01.2015 11:35 2,8 C 53 % 1019,4 hPa 0,0 l/m 0,8 km/h (0 Bft) W-SW 247 -5,8 C 2,2 C 5,3 km/h (1 Bft)
13.01.2015 11:40 3,6 C 50 % 1019,4 hPa 0,0 l/m 1,1 km/h (1 Bft) SO 135 -5,8 C 2,8 C 0,0 km/h (0 Bft)
13.01.2015 11:45 3,2 C 51 % 1019,4 hPa 0,0 l/m 1,3 km/h (1 Bft) W-SW 247 -5,9 C 3,0 C 1,6 km/h (1 Bft)
13.01.2015 11:50 4,0 C 49 % 1019,4 hPa 0,0 l/m 1,0 km/h (0 Bft) S 180 -5,7 C 3,3 C 0,0 km/h (0 Bft)
13.01.2015 11:55 3,8 C 50 % 1019,4 hPa 0,0 l/m 0,8 km/h (0 Bft) SW 225 -5,6 C 3,5 C 0,0 km/h (0 Bft)
13.01.2015 12:00 3,8 C 50 % 1018,9 hPa 0,0 l/m 0,0 km/h (0 Bft) W-SW 247 -5,6 C 3,5 C 0,0 km/h (0 Bft)
13.01.2015 12:05 4,0 C 50 % 1018,9 hPa 0,0 l/m 0,0 km/h (0 Bft) SW 225 -5,5 C 3,6 C 0,0 km/h (0 Bft)
13.01.2015 12:10 4,3 C 49 % 1018,9 hPa 0,0 l/m 0,2 km/h (0 Bft) S 180 -5,5 C 4,0 C 0,0 km/h (0 Bft)
13.01.2015 12:15 4,6 C 48 % 1018,9 hPa 0,0 l/m 0,2 km/h (0 Bft) S 180 -5,4 C 4,3 C 1,8 km/h (1 Bft)
13.01.2015 12:20 5,0 C 48 % 1018,7 hPa 0,0 l/m 0,3 km/h (0 Bft) S 180 -5,1 C 4,6 C 0,0 km/h (0 Bft)
13.01.2015 12:25 5,2 C 48 % 1018,7 hPa 0,0 l/m 0,3 km/h (0 Bft) S 180 -4,9 C 4,8 C 0,0 km/h (0 Bft)
13.01.2015 12:30 5,5 C 47 % 1018,7 hPa 0,0 l/m 0,5 km/h (0 Bft) S 180 -4,9 C 5,1 C 0,0 km/h (0 Bft)
13.01.2015 12:35 5,4 C 47 % 1018,7 hPa 0,0 l/m 0,5 km/h (0 Bft) S-SO 157 -5,0 C 5,3 C 0,0 km/h (0 Bft)
13.01.2015 12:40 5,5 C 47 % 1018,4 hPa 0,0 l/m 0,6 km/h (0 Bft) W 270 -4,9 C 5,3 C 3,1 km/h (1 Bft)
13.01.2015 12:45 5,7 C 47 % 1018,4 hPa 0,0 l/m 0,8 km/h (0 Bft) S 180 -4,7 C 5,4 C 0,0 km/h (0 Bft)
13.01.2015 12:50 7,2 C 40 % 1018,4 hPa 0,0 l/m 2,3 km/h (1 Bft) S 180 -5,5 C 6,1 C 5,5 km/h (1 Bft)
13.01.2015 12:55 7,4 C 40 % 1018,4 hPa 0,0 l/m 3,1 km/h (1 Bft) W-SW 247 -5,3 C 6,8 C 4,8 km/h (1 Bft)
13.01.2015 13:00 7,8 C 37 % 1018,2 hPa 0,0 l/m 4,3 km/h (1 Bft) W 270 -6,0 C 7,0 C 13,2 km/h (3 Bft)
13.01.2015 13:05 8,0 C 36 % 1018,2 hPa 0,0 l/m 4,5 km/h (1 Bft) W-SW 247 -6,1 C 7,3 C 6,0 km/h (2 Bft)
13.01.2015 13:10 8,3 C 33 % 1018,2 hPa 0,0 l/m 4,7 km/h (1 Bft) SW 225 -7,0 C 7,7 C 5,3 km/h (1 Bft)
13.01.2015 13:15 8,4 C 33 % 1018,2 hPa 0,0 l/m 4,7 km/h (1 Bft) W-SW 247 -6,9 C 7,9 C 3,1 km/h (1 Bft)
13.01.2015 13:20 8,4 C 32 % 1017,9 hPa 0,0 l/m 4,5 km/h (1 Bft) W-NW 292 -7,3 C 7,9 C 13,4 km/h (3 Bft)
13.01.2015 13:25 8,5 C 32 % 1017,9 hPa 0,0 l/m 5,0 km/h (1 Bft) W-SW 247 -7,2 C 7,9 C 7,2 km/h (2 Bft)
13.01.2015 13:30 8,4 C 32 % 1017,9 hPa 0,0 l/m 4,8 km/h (1 Bft) W 270 -7,3 C 8,1 C 3,9 km/h (1 Bft)
13.01.2015 13:35 8,2 C 32 % 1017,9 hPa 0,0 l/m 4,0 km/h (1 Bft) W 270 -7,5 C 8,3 C 2,7 km/h (1 Bft)
13.01.2015 13:40 8,3 C 32 % 1017,6 hPa 0,0 l/m 3,9 km/h (1 Bft) W 270 -7,4 C 8,2 C 3,5 km/h (1 Bft)
13.01.2015 13:45 8,2 C 32 % 1017,6 hPa 0,0 l/m 3,9 km/h (1 Bft) W-NW 292 -7,5 C 8,2 C 3,5 km/h (1 Bft)
13.01.2015 13:50 8,4 C 32 % 1017,6 hPa 0,0 l/m 4,0 km/h (1 Bft) NW 315 -7,3 C 8,2 C 6,1 km/h (2 Bft)
13.01.2015 13:55 8,6 C 32 % 1017,6 hPa 0,0 l/m 4,3 km/h (1 Bft) W-SW 247 -7,1 C 8,2 C 3,9 km/h (1 Bft)
13.01.2015 14:00 9,0 C 31 % 1017,6 hPa 0,0 l/m 5,0 km/h (1 Bft) W 270 -7,2 C 8,2 C 14,8 km/h (3 Bft)
13.01.2015 14:05 8,8 C 31 % 1017,6 hPa 0,0 l/m 4,7 km/h (1 Bft) S-SW 202 -7,4 C 8,4 C 4,5 km/h (1 Bft)
13.01.2015 14:10 9,0 C 31 % 1017,6 hPa 0,0 l/m 4,3 km/h (1 Bft) W-SW 247 -7,2 C 8,7 C 5,3 km/h (1 Bft)
13.01.2015 14:15 9,1 C 31 % 1017,6 hPa 0,0 l/m 4,0 km/h (1 Bft) SW 225 -7,1 C 9,4 C 6,3 km/h (2 Bft)
13.01.2015 14:20 9,6 C 31 % 1018,1 hPa 0,0 l/m 4,3 km/h (1 Bft) W 270 -6,7 C 10,7 C 5,3 km/h (1 Bft)
13.01.2015 14:25 9,8 C 30 % 1018,1 hPa 0,0 l/m 3,9 km/h (1 Bft) W-SW 247 -6,9 C 11,6 C 6,4 km/h (2 Bft)
13.01.2015 14:30 10,3 C 31 % 1018,1 hPa 0,0 l/m 3,7 km/h (1 Bft) SW 225 -6,1 C 12,9 C 5,0 km/h (1 Bft)
13.01.2015 14:35 9,6 C 31 % 1018,1 hPa 0,0 l/m 3,9 km/h (1 Bft) W-SW 247 -6,7 C 12,8 C 3,4 km/h (1 Bft)
13.01.2015 14:40 8,9 C 31 % 1017,9 hPa 0,0 l/m 3,1 km/h (1 Bft) W 270 -7,3 C 11,2 C 0,0 km/h (0 Bft)
13.01.2015 14:45 8,7 C 31 % 1017,9 hPa 0,0 l/m 2,1 km/h (1 Bft) SW 225 -7,5 C 10,8 C 2,9 km/h (1 Bft)
13.01.2015 14:50 8,5 C 32 % 1017,9 hPa 0,0 l/m 1,3 km/h (1 Bft) W-SW 247 -7,2 C 10,6 C 0,0 km/h (0 Bft)
13.01.2015 14:55 8,3 C 32 % 1017,9 hPa 0,0 l/m 1,1 km/h (1 Bft) W-SW 247 -7,4 C 9,9 C 0,0 km/h (0 Bft)
13.01.2015 15:00 8,2 C 32 % 1017,9 hPa 0,0 l/m 0,0 km/h (0 Bft) W-SW 247 -7,5 C 9,0 C 0,0 km/h (0 Bft)
13.01.2015 15:05 8,6 C 33 % 1017,9 hPa 0,0 l/m 0,2 km/h (0 Bft) W-SW 247 -6,7 C 9,7 C 0,0 km/h (0 Bft)
13.01.2015 15:10 8,5 C 32 % 1017,9 hPa 0,0 l/m 0,8 km/h (0 Bft) SW 225 -7,2 C 10,3 C 2,4 km/h (1 Bft)
13.01.2015 15:15 8,5 C 32 % 1017,9 hPa 0,0 l/m 1,6 km/h (1 Bft) S 180 -7,2 C 10,1 C 4,5 km/h (1 Bft)
13.01.2015 15:20 8,5 C 31 % 1017,6 hPa 0,0 l/m 2,7 km/h (1 Bft) SW 225 -7,6 C 9,5 C 4,2 km/h (1 Bft)
13.01.2015 15:25 8,3 C 31 % 1017,6 hPa 0,0 l/m 2,6 km/h (1 Bft) SW 225 -7,8 C 9,1 C 2,7 km/h (1 Bft)
13.01.2015 15:30 7,8 C 32 % 1017,6 hPa 0,0 l/m 2,1 km/h (1 Bft) W-SW 247 -7,8 C 8,4 C 5,3 km/h (1 Bft)
13.01.2015 15:35 8,0 C 32 % 1017,6 hPa 0,0 l/m 1,9 km/h (1 Bft) SW 225 -7,7 C 8,1 C 4,2 km/h (1 Bft)
13.01.2015 15:40 7,9 C 32 % 1017,4 hPa 0,0 l/m 2,3 km/h (1 Bft) S-SW 202 -7,8 C 7,8 C 3,4 km/h (1 Bft)
13.01.2015 15:45 7,5 C 33 % 1017,4 hPa 0,0 l/m 2,6 km/h (1 Bft) W-SW 247 -7,7 C 7,8 C 2,1 km/h (1 Bft)
13.01.2015 15:50 6,8 C 34 % 1017,4 hPa 0,0 l/m 1,8 km/h (1 Bft) S 180 -7,9 C 7,2 C 0,0 km/h (0 Bft)
13.01.2015 15:55 6,4 C 34 % 1017,4 hPa 0,0 l/m 0,8 km/h (0 Bft) S 180 -8,3 C 6,7 C 1,6 km/h (1 Bft)
13.01.2015 16:00 6,1 C 35 % 1017,3 hPa 0,0 l/m 0,6 km/h (0 Bft) SW 225 -8,2 C 6,2 C 2,3 km/h (1 Bft)
13.01.2015 16:05 6,1 C 35 % 1017,3 hPa 0,0 l/m 1,3 km/h (1 Bft) S 180 -8,2 C 6,0 C 1,8 km/h (1 Bft)
13.01.2015 16:10 5,6 C 36 % 1017,3 hPa 0,0 l/m 1,4 km/h (1 Bft) S 180 -8,3 C 5,7 C 2,1 km/h (1 Bft)
13.01.2015 16:15 5,5 C 37 % 1017,3 hPa 0,0 l/m 1,0 km/h (0 Bft) S 180 -8,0 C 5,4 C 2,1 km/h (1 Bft)
13.01.2015 16:20 5,5 C 37 % 1017,2 hPa 0,0 l/m 1,1 km/h (1 Bft) S 180 -8,0 C 5,3 C 3,5 km/h (1 Bft)
13.01.2015 16:25 5,4 C 39 % 1017,2 hPa 0,0 l/m 1,4 km/h (1 Bft) S 180 -7,4 C 5,2 C 3,1 km/h (1 Bft)
13.01.2015 16:30 5,0 C 41 % 1017,2 hPa 0,0 l/m 1,9 km/h (1 Bft) S 180 -7,1 C 5,1 C 2,4 km/h (1 Bft)
13.01.2015 16:35 5,0 C 41 % 1017,2 hPa 0,0 l/m 2,1 km/h (1 Bft) S 180 -7,1 C 5,0 C 4,2 km/h (1 Bft)
13.01.2015 16:40 4,4 C 42 % 1017,2 hPa 0,0 l/m 2,3 km/h (1 Bft) S 180 -7,4 C 4,6 C 2,9 km/h (1 Bft)
13.01.2015 16:45 4,3 C 42 % 1017,2 hPa 0,0 l/m 1,8 km/h (1 Bft) S 180 -7,5 C 4,4 C 0,0 km/h (0 Bft)
13.01.2015 16:50 4,2 C 42 % 1017,2 hPa 0,0 l/m 1,6 km/h (1 Bft) S 180 -7,5 C 4,3 C 3,1 km/h (1 Bft)
13.01.2015 16:55 3,4 C 44 % 1017,2 hPa 0,0 l/m 1,4 km/h (1 Bft) S-SW 202 -7,7 C 3,9 C 3,7 km/h (1 Bft)
13.01.2015 17:00 3,5 C 44 % 1017,3 hPa 0,0 l/m 1,4 km/h (1 Bft) S 180 -7,6 C 3,4 C 2,3 km/h (1 Bft)
13.01.2015 17:05 3,0 C 46 % 1017,3 hPa 0,0 l/m 1,1 km/h (1 Bft) W-SW 247 -7,5 C 3,1 C 0,0 km/h (0 Bft)
13.01.2015 17:10 2,6 C 49 % 1017,3 hPa 0,0 l/m 0,8 km/h (0 Bft) S 180 -7,0 C 2,2 C 2,3 km/h (1 Bft)
13.01.2015 17:15 2,4 C 51 % 1017,3 hPa 0,0 l/m 1,0 km/h (0 Bft) S 180 -6,7 C 2,0 C 2,6 km/h (1 Bft)
13.01.2015 17:20 2,1 C 51 % 1017,1 hPa 0,0 l/m 1,0 km/h (0 Bft) S 180 -7,0 C 1,6 C 0,0 km/h (0 Bft)
13.01.2015 17:25 2,2 C 52 % 1017,1 hPa 0,0 l/m 0,6 km/h (0 Bft) S 180 -6,6 C 1,5 C 0,0 km/h (0 Bft)
13.01.2015 17:30 2,1 C 52 % 1017,1 hPa 0,0 l/m 0,5 km/h (0 Bft) S 180 -6,7 C 1,2 C 0,0 km/h (0 Bft)
13.01.2015 17:35 1,8 C 53 % 1017,1 hPa 0,0 l/m 0,2 km/h (0 Bft) S 180 -6,7 C 1,0 C 0,0 km/h (0 Bft)
13.01.2015 17:40 1,3 C 53 % 1017,2 hPa 0,0 l/m 0,0 km/h (0 Bft) S 180 -7,2 C 0,5 C 0,0 km/h (0 Bft)
13.01.2015 17:45 1,2 C 52 % 1017,2 hPa 0,0 l/m 0,0 km/h (0 Bft) S 180 -7,5 C 0,2 C 0,0 km/h (0 Bft)
13.01.2015 17:50 0,8 C 53 % 1017,2 hPa 0,0 l/m 0,0 km/h (0 Bft) S 180 -7,7 C -0,2 C 0,0 km/h (0 Bft)
13.01.2015 17:55 0,6 C 54 % 1017,2 hPa 0,0 l/m 0,0 km/h (0 Bft) S 180 -7,6 C -0,4 C 0,0 km/h (0 Bft)
13.01.2015 18:00 0,3 C 54 % 1017,1 hPa 0,0 l/m 0,0 km/h (0 Bft) S 180 -7,9 C -0,8 C 0,0 km/h (0 Bft)
13.01.2015 18:05 1,2 C 55 % 1017,1 hPa 0,0 l/m 0,6 km/h (0 Bft) W 270 -6,8 C -0,8 C 6,4 km/h (2 Bft)
13.01.2015 18:10 1,4 C 55 % 1017,1 hPa 0,0 l/m 1,3 km/h (1 Bft) S 180 -6,6 C -0,2 C 1,9 km/h (1 Bft)
13.01.2015 18:15 1,3 C 55 % 1017,1 hPa 0,0 l/m 1,1 km/h (1 Bft) S 180 -6,7 C 0,2 C 0,0 km/h (0 Bft)
13.01.2015 18:20 1,2 C 55 % 1017,0 hPa 0,0 l/m 0,3 km/h (0 Bft) S 180 -6,8 C 0,2 C 0,0 km/h (0 Bft)
13.01.2015 18:25 1,1 C 56 % 1017,0 hPa 0,0 l/m 0,0 km/h (0 Bft) S 180 -6,7 C 0,2 C 0,0 km/h (0 Bft)
13.01.2015 18:30 0,7 C 55 % 1017,0 hPa 0,0 l/m 0,0 km/h (0 Bft) S 180 -7,3 C -0,2 C 0,0 km/h (0 Bft)
13.01.2015 18:35 0,3 C 55 % 1017,0 hPa 0,0 l/m 0,2 km/h (0 Bft) S 180 -7,7 C -0,4 C 0,0 km/h (0 Bft)
13.01.2015 18:40 0,2 C 56 % 1016,9 hPa 0,0 l/m 0,2 km/h (0 Bft) S 180 -7,5 C -0,8 C 0,0 km/h (0 Bft)
13.01.2015 18:45 0,2 C 57 % 1016,9 hPa 0,0 l/m 0,0 km/h (0 Bft) S 180 -7,3 C -1,0 C 0,0 km/h (0 Bft)
13.01.2015 18:50 0,1 C 57 % 1016,9 hPa 0,0 l/m 0,0 km/h (0 Bft) S 180 -7,4 C -1,0 C 0,0 km/h (0 Bft)
13.01.2015 18:55 0,1 C 57 % 1016,9 hPa 0,0 l/m 0,0 km/h (0 Bft) S 180 -7,4 C -1,2 C 0,0 km/h (0 Bft)
13.01.2015 19:00 0,4 C 58 % 1016,6 hPa 0,0 l/m 0,0 km/h (0 Bft) S 180 -6,9 C -1,0 C 0,0 km/h (0 Bft)
13.01.2015 19:05 0,4 C 58 % 1016,6 hPa 0,0 l/m 0,5 km/h (0 Bft) NW 315 -6,9 C -1,0 C 0,0 km/h (0 Bft)
13.01.2015 19:10 0,3 C 58 % 1016,6 hPa 0,0 l/m 1,0 km/h (0 Bft) NW 315 -7,0 C -1,0 C 0,0 km/h (0 Bft)
13.01.2015 19:15 0,3 C 59 % 1016,6 hPa 0,0 l/m 1,0 km/h (0 Bft) O-NO 67 -6,8 C -1,0 C 0,0 km/h (0 Bft)
13.01.2015 19:20 -0,1 C 57 % 1016,9 hPa 0,0 l/m 0,6 km/h (0 Bft) N-NO 22 -7,6 C -1,1 C 0,0 km/h (0 Bft)
13.01.2015 19:25 0,1 C 57 % 1016,9 hPa 0,0 l/m 0,3 km/h (0 Bft) NO 45 -7,4 C -1,1 C 0,0 km/h (0 Bft)
13.01.2015 19:30 -0,3 C 57 % 1016,9 hPa 0,0 l/m 0,2 km/h (0 Bft) NO 45 -7,8 C -1,4 C 0,0 km/h (0 Bft)
13.01.2015 19:35 -0,3 C 57 % 1016,9 hPa 0,0 l/m 0,0 km/h (0 Bft) NO 45 -7,8 C -1,5 C 0,0 km/h (0 Bft)
13.01.2015 19:40 -0,3 C 57 % 1016,8 hPa 0,0 l/m 0,0 km/h (0 Bft) NO 45 -7,8 C -1,5 C 0,0 km/h (0 Bft)
13.01.2015 19:45 0,1 C 58 % 1016,8 hPa 0,0 l/m 0,0 km/h (0 Bft) NO 45 -7,2 C -1,3 C 0,0 km/h (0 Bft)
13.01.2015 19:50 0,2 C 58 % 1016,8 hPa 0,0 l/m 0,0 km/h (0 Bft) NO 45 -7,1 C -1,1 C 0,0 km/h (0 Bft)
13.01.2015 19:55 0,1 C 59 % 1016,8 hPa 0,0 l/m 0,0 km/h (0 Bft) N-NO 22 -6,9 C -1,0 C 0,0 km/h (0 Bft)
13.01.2015 20:00 0,6 C 58 % 1016,6 hPa 0,0 l/m 0,2 km/h (0 Bft) N-NW 337 -6,7 C -0,8 C 2,9 km/h (1 Bft)
13.01.2015 20:05 0,9 C 57 % 1016,6 hPa 0,0 l/m 1,0 km/h (0 Bft) SO 135 -6,6 C -0,6 C 2,1 km/h (1 Bft)
13.01.2015 20:10 0,4 C 56 % 1016,6 hPa 0,0 l/m 1,0 km/h (0 Bft) O-SO 112 -7,3 C -0,5 C 0,0 km/h (0 Bft)
13.01.2015 20:15 -0,1 C 56 % 1016,6 hPa 0,0 l/m 0,2 km/h (0 Bft) SO 135 -7,8 C -0,8 C 0,0 km/h (0 Bft)
13.01.2015 20:20 -0,8 C 57 % 1016,6 hPa 0,0 l/m 0,0 km/h (0 Bft) SO 135 -8,2 C -1,5 C 0,0 km/h (0 Bft)
13.01.2015 20:25 -0,7 C 58 % 1016,6 hPa 0,0 l/m 0,2 km/h (0 Bft) O-SO 112 -7,9 C -1,8 C 2,1 km/h (1 Bft)
13.01.2015 20:30 0,9 C 57 % 1016,6 hPa 0,0 l/m 1,8 km/h (1 Bft) O-NO 67 -6,6 C -1,0 C 3,4 km/h (1 Bft)
13.01.2015 20:35 0,2 C 57 % 1016,6 hPa 0,0 l/m 2,3 km/h (1 Bft) O-NO 67 -7,3 C -0,8 C 2,6 km/h (1 Bft)
13.01.2015 20:40 -0,1 C 58 % 1016,5 hPa 0,0 l/m 0,8 km/h (0 Bft) O-NO 67 -7,3 C -1,0 C 0,0 km/h (0 Bft)
13.01.2015 20:45 -0,2 C 58 % 1016,5 hPa 0,0 l/m 0,3 km/h (0 Bft) O-NO 67 -7,4 C -1,1 C 0,0 km/h (0 Bft)
13.01.2015 20:50 0,0 C 58 % 1016,5 hPa 0,0 l/m 0,0 km/h (0 Bft) O-NO 67 -7,3 C -1,3 C 0,0 km/h (0 Bft)
13.01.2015 20:55 -0,3 C 58 % 1016,5 hPa 0,0 l/m 0,0 km/h (0 Bft) O-NO 67 -7,5 C -1,3 C 0,0 km/h (0 Bft)
13.01.2015 21:00 -0,7 C 58 % 1016,4 hPa 0,0 l/m 0,0 km/h (0 Bft) O-NO 67 -7,9 C -1,7 C 0,0 km/h (0 Bft)
13.01.2015 21:05 -0,9 C 58 % 1016,4 hPa 0,0 l/m 0,0 km/h (0 Bft) O-NO 67 -8,1 C -1,8 C 0,0 km/h (0 Bft)
13.01.2015 21:10 -0,6 C 59 % 1016,4 hPa 0,0 l/m 0,3 km/h (0 Bft) O-NO 67 -7,6 C -1,9 C 0,0 km/h (0 Bft)
13.01.2015 21:15 -0,8 C 58 % 1016,4 hPa 0,0 l/m 0,3 km/h (0 Bft) O-NO 67 -8,0 C -1,9 C 0,0 km/h (0 Bft)
13.01.2015 21:20 -1,3 C 58 % 1016,2 hPa 0,0 l/m 0,0 km/h (0 Bft) O-NO 67 -8,5 C -2,2 C 0,0 km/h (0 Bft)
13.01.2015 21:25 -1,6 C 58 % 1016,2 hPa 0,0 l/m 0,0 km/h (0 Bft) O-NO 67 -8,8 C -2,4 C 0,0 km/h (0 Bft)
13.01.2015 21:30 -1,8 C 59 % 1016,2 hPa 0,0 l/m 0,0 km/h (0 Bft) O-NO 67 -8,7 C -2,7 C 0,0 km/h (0 Bft)
13.01.2015 21:35 -1,8 C 59 % 1016,2 hPa 0,0 l/m 0,0 km/h (0 Bft) O 90 -8,7 C -2,8 C 0,0 km/h (0 Bft)
13.01.2015 21:40 -1,1 C 60 % 1015,9 hPa 0,0 l/m 0,2 km/h (0 Bft) O 90 -7,9 C -2,8 C 0,0 km/h (0 Bft)
13.01.2015 21:45 -1,3 C 60 % 1015,9 hPa 0,0 l/m 1,0 km/h (0 Bft) W 270 -8,0 C -2,5 C 4,7 km/h (1 Bft)
13.01.2015 21:50 0,5 C 59 % 1015,9 hPa 0,0 l/m 4,7 km/h (1 Bft) S 180 -6,6 C -3,1 C 19,0 km/h (3 Bft)
13.01.2015 21:55 0,7 C 58 % 1015,9 hPa 0,0 l/m 4,8 km/h (1 Bft) S-SO 157 -6,6 C -2,3 C 1,6 km/h (1 Bft)
13.01.2015 22:00 1,1 C 56 % 1016,6 hPa 0,0 l/m 2,4 km/h (1 Bft) S 180 -6,7 C 0,1 C 2,9 km/h (1 Bft)
13.01.2015 22:05 1,7 C 55 % 1016,6 hPa 0,0 l/m 2,6 km/h (1 Bft) SW 225 -6,4 C 0,5 C 3,1 km/h (1 Bft)
13.01.2015 22:10 2,1 C 53 % 1016,6 hPa 0,0 l/m 3,2 km/h (1 Bft) SW 225 -6,5 C 0,7 C 3,7 km/h (1 Bft)
13.01.2015 22:15 2,2 C 52 % 1016,6 hPa 0,0 l/m 3,4 km/h (1 Bft) S-SW 202 -6,6 C 0,8 C 5,1 km/h (1 Bft)
13.01.2015 22:20 2,7 C 51 % 1016,4 hPa 0,0 l/m 3,4 km/h (1 Bft) W-SW 247 -6,4 C 1,5 C 4,2 km/h (1 Bft)
13.01.2015 22:25 2,7 C 50 % 1016,4 hPa 0,0 l/m 3,2 km/h (1 Bft) S 180 -6,7 C 1,8 C 2,3 km/h (1 Bft)
13.01.2015 22:30 2,3 C 49 % 1016,4 hPa 0,0 l/m 1,9 km/h (1 Bft) SW 225 -7,3 C 2,2 C 0,0 km/h (0 Bft)
13.01.2015 22:35 1,9 C 51 % 1016,4 hPa 0,0 l/m 1,4 km/h (1 Bft) W-SW 247 -7,1 C 2,0 C 2,1 km/h (1 Bft)
13.01.2015 22:40 0,4 C 52 % 1016,4 hPa 0,0 l/m 0,8 km/h (0 Bft) W-SW 247 -8,3 C 0,9 C 0,0 km/h (0 Bft)
13.01.2015 22:45 0,1 C 54 % 1016,4 hPa 0,0 l/m 0,3 km/h (0 Bft) S-SO 157 -8,1 C 0,1 C 0,0 km/h (0 Bft)
13.01.2015 22:50 -0,3 C 55 % 1016,4 hPa 0,0 l/m 0,0 km/h (0 Bft) S-SO 157 -8,2 C -0,8 C 0,0 km/h (0 Bft)
13.01.2015 22:55 -0,4 C 55 % 1016,4 hPa 0,0 l/m 0,0 km/h (0 Bft) W-SW 247 -8,3 C -1,0 C 0,0 km/h (0 Bft)
13.01.2015 23:00 -0,6 C 56 % 1016,2 hPa 0,0 l/m 0,5 km/h (0 Bft) W 270 -8,3 C -1,4 C 1,9 km/h (1 Bft)
13.01.2015 23:05 -0,7 C 57 % 1016,2 hPa 0,0 l/m 1,0 km/h (0 Bft) W-SW 247 -8,1 C -1,5 C 0,0 km/h (0 Bft)
13.01.2015 23:10 0,0 C 58 % 1016,2 hPa 0,0 l/m 2,3 km/h (1 Bft) W-SW 247 -7,3 C -1,2 C 3,4 km/h (1 Bft)
13.01.2015 23:15 -1,0 C 57 % 1016,2 hPa 0,0 l/m 1,6 km/h (1 Bft) W-SW 247 -8,4 C -1,2 C 0,0 km/h (0 Bft)
13.01.2015 23:20 0,0 C 59 % 1016,2 hPa 0,0 l/m 1,4 km/h (1 Bft) S-SO 157 -7,0 C -1,4 C 3,4 km/h (1 Bft)
13.01.2015 23:25 -0,3 C 58 % 1016,2 hPa 0,0 l/m 1,8 km/h (1 Bft) W-SW 247 -7,5 C -1,0 C 1,8 km/h (1 Bft)
13.01.2015 23:30 -1,1 C 58 % 1016,2 hPa 0,0 l/m 1,0 km/h (0 Bft) S 180 -8,3 C -1,5 C 2,6 km/h (1 Bft)
13.01.2015 23:35 0,6 C 58 % 1016,2 hPa 0,0 l/m 2,1 km/h (1 Bft) S 180 -6,7 C -1,1 C 4,8 km/h (1 Bft)
13.01.2015 23:40 2,5 C 54 % 1016,2 hPa 0,0 l/m 4,7 km/h (1 Bft) S 180 -5,8 C -0,6 C 7,4 km/h (2 Bft)
13.01.2015 23:45 2,5 C 54 % 1016,2 hPa 0,0 l/m 4,7 km/h (1 Bft) W-SW 247 -5,8 C 0,3 C 6,9 km/h (2 Bft)
13.01.2015 23:50 3,5 C 50 % 1016,2 hPa 0,0 l/m 4,8 km/h (1 Bft) S 180 -5,9 C 1,4 C 2,6 km/h (1 Bft)
13.01.2015 23:55 3,2 C 50 % 1016,2 hPa 0,0 l/m 4,7 km/h (1 Bft) W-SW 247 -6,2 C 1,9 C 7,4 km/h (2 Bft)
_ Min-Zeit 08:45 14:25 21:55 - 22:55 - - 00:15 08:00 23:15
Minimum _ -5,0 C 30 % 1015,9 hPa - 0,0 km/h (0 Bft) - - -12,1 C -6,1 C 0,0 km/h (0 Bft)
_ Max-Zeit 14:30 09:15 00:15 23:55 00:05 - - 12:45 14:30 21:50
Maximum _ 10,3 C 68 % 1023,1 hPa 0,0 l/m 6,4 km/h
SW (2 Bft)
- - -4,7 C 12,9 C 19,0 km/h
S (3 Bft)
Durchschnitt _ 1,1 C 52 % 1019,1 hPa #0,0 l/m 1,4 km/h (1 Bft) S - -8,0 C 0,3 C 1,8 km/h (1 Bft)